User: anonymous   Login
Location: Davayat
(45.9471°N, 3.1105°E)
Time: 15:27:16
(UTC+00:00)
Language:

Meteor 2-12 Rocket - Orbit

View from above orbital plane
View from above orbital plane
View from above satellite
View from above satellite

Ground track
Ground track

The orbit data is extracted from the following two-line orbital elements,

1 15517U 85013B   21062.78072291  .00000009  00000-0 -51534-5 0  9996
2 15517  82.5324  81.9893 0014559 351.0244   9.0654 13.84895777822809
Epoch (UTC): 03 March 2021 18:44:14
Eccentricity: 0.0014559
inclination: 82.5324°
perigee height: 936 km
apogee height: 957 km
right ascension of ascending node: 81.9893°
argument of perigee: 351.0244°
revolutions per day: 13.84895777
mean anomaly at epoch: 9.0654°
orbit number at epoch: 82280

The dashed part of the orbit path shows where the satellite is in the earth's shadow,  

DLR